| time (UTC) | temp F | wind direction | speed MPH | gust MPH | rain 1hr in | rain 24hr in | rain mn in | humidity % | barometer mb |
| 20260508163005 | 57 | 305 | 4.0 | 13.0 | 0.00 | 0.00 | 0.00 | 38 | 1010.4 |
| 20260508161502 | 56 | 268 | 5.0 | 11.0 | 0.00 | 0.00 | 0.00 | 44 | 1010.6 |
| 20260508160058 | 56 | 208 | 6.0 | 10.0 | 0.00 | 0.00 | 0.00 | 44 | 1010.7 |
| 20260508154603 | 55 | 192 | 2.0 | 9.0 | 0.00 | 0.00 | 0.00 | 44 | 1010.8 |
| 20260508153055 | 55 | 228 | 3.0 | 9.0 | 0.00 | 0.00 | 0.00 | 44 | 1010.8 |
| 20260508151548 | 54 | 254 | 3.0 | 9.0 | 0.00 | 0.00 | 0.00 | 48 | 1010.9 |
| 20260508150046 | 54 | 252 | 5.0 | 8.0 | 0.00 | 0.00 | 0.00 | 50 | 1011.1 |
| 20260508144544 | 53 | 213 | 6.0 | 10.0 | 0.00 | 0.00 | 0.00 | 51 | 1011.1 |
| 20260508143037 | 52 | 282 | 4.0 | 10.0 | 0.00 | 0.00 | 0.00 | 53 | 1011.2 |
| 20260508141601 | 51 | 227 | 5.0 | 9.0 | 0.00 | 0.00 | 0.00 | 55 | 1011.4 |
| 20260508140029 | 50 | 229 | 3.0 | 10.0 | 0.00 | 0.00 | 0.00 | 60 | 1011.4 |
| 20260508134528 | 49 | 153 | 3.0 | 8.0 | 0.00 | 0.00 | 0.00 | 61 | 1011.2 |
| 20260508133020 | 48 | 221 | 4.0 | 7.0 | 0.00 | 0.00 | 0.00 | 64 | 1011.3 |
| 20260508131516 | 47 | 197 | 3.0 | 7.0 | 0.00 | 0.00 | 0.00 | 66 | 1011.4 |
| 20260508130011 | 46 | 223 | 2.0 | 7.0 | 0.00 | 0.00 | 0.00 | 71 | 1011.5 |
| 20260508124507 | 44 | 234 | 3.0 | 6.0 | 0.00 | 0.00 | 0.00 | 74 | 1011.4 |
| 20260508123004 | 43 | 242 | 3.0 | 6.0 | 0.00 | 0.00 | 0.00 | 76 | 1011.3 |
| 20260508121603 | 42 | 257 | 2.0 | 7.0 | 0.00 | 0.00 | 0.00 | 77 | 1011.1 |
| 20260508120055 | 41 | 240 | 2.0 | 4.0 | 0.00 | 0.00 | 0.00 | 79 | 1011.0 |
| 20260508114551 | 40 | 222 | 1.0 | 4.0 | 0.00 | 0.00 | 0.00 | 83 | 1010.9 |
| 20260508113104 | 39 | 222 | 0.0 | 0.0 | 0.00 | 0.00 | 0.00 | 85 | 1010.9 |
| 20260508111548 | 38 | 222 | 0.0 | 0.0 | 0.00 | 0.00 | 0.00 | 86 | 1010.9 |
| 20260508110042 | 37 | 222 | 0.0 | 0.0 | 0.00 | 0.00 | 0.00 | 87 | 1011.0 |
| 20260508104540 | 36 | 222 | 0.0 | 0.0 | 0.00 | 0.00 | 0.00 | 87 | 1011.0 |
| 20260508103039 | 36 | 222 | 0.0 | 0.0 | 0.00 | 0.00 | 0.00 | 87 | 1010.8 |
| 20260508101537 | 35 | 222 | 0.0 | 0.0 | 0.00 | 0.00 | 0.00 | 87 | 1010.8 |
| 20260508100035 | 35 | 222 | 0.0 | 0.0 | 0.00 | 0.00 | 0.00 | 86 | 1010.8 |
| 20260508094532 | 36 | 222 | 0.0 | 0.0 | 0.00 | 0.00 | 0.00 | 85 | 1010.8 |
| 20260508093032 | 36 | 222 | 0.0 | 1.0 | 0.00 | 0.00 | 0.00 | 84 | 1010.8 |
| 20260508091536 | 36 | 261 | 0.0 | 0.0 | 0.00 | 0.00 | 0.00 | 84 | 1010.8 |
| 20260508090037 | 36 | 261 | 0.0 | 0.0 | 0.00 | 0.00 | 0.00 | 84 | 1010.7 |
| 20260508084527 | 37 | 261 | 0.0 | 0.0 | 0.00 | 0.00 | 0.00 | 83 | 1010.7 |
| 20260508083024 | 37 | 261 | 0.0 | 0.0 | 0.00 | 0.00 | 0.00 | 82 | 1010.8 |
| 20260508081521 | 38 | 261 | 0.0 | 0.0 | 0.00 | 0.00 | 0.00 | 80 | 1010.9 |
| 20260508080030 | 39 | 261 | 0.0 | 0.0 | 0.00 | 0.00 | 0.00 | 79 | 1010.9 |
| 20260508074526 | 40 | 261 | 0.0 | 0.0 | 0.00 | 0.00 | 0.00 | 79 | 1010.8 |
| 20260508073015 | 41 | 261 | 0.0 | 4.0 | 0.00 | 0.00 | 0.00 | 79 | 1010.8 |
| 20260508071614 | 40 | 240 | 3.0 | 5.0 | 0.00 | 0.00 | 0.00 | 79 | 1010.7 |
| 20260508070010 | 41 | 233 | 2.0 | 5.0 | 0.00 | 0.00 | 0.00 | 78 | 1010.4 |
| 20260508064507 | 42 | 228 | 2.0 | 6.0 | 0.00 | 0.00 | 0.00 | 77 | 1010.5 |
| 20260508063005 | 42 | 213 | 2.0 | 5.0 | 0.00 | 0.00 | 0.00 | 75 | 1010.7 |
| 20260508061503 | 43 | 238 | 4.0 | 7.0 | 0.00 | 0.00 | 0.00 | 75 | 1010.9 |
| 20260508060109 | 43 | 220 | 3.0 | 6.0 | 0.00 | 0.00 | 0.00 | 75 | 1010.9 |
| 20260508054558 | 43 | 225 | 3.0 | 7.0 | 0.00 | 0.00 | 0.00 | 75 | 1010.9 |
| 20260508053056 | 43 | 229 | 3.0 | 6.0 | 0.00 | 0.00 | 0.00 | 75 | 1011.2 |
| 20260508051554 | 43 | 216 | 3.0 | 5.0 | 0.00 | 0.00 | 0.00 | 73 | 1011.2 |
| 20260508050053 | 43 | 223 | 3.0 | 7.0 | 0.00 | 0.00 | 0.00 | 73 | 1011.4 |
| 20260508044546 | 43 | 219 | 2.0 | 6.0 | 0.00 | 0.00 | 0.00 | 73 | 1011.3 |
| 20260508043045 | 42 | 212 | 2.0 | 6.0 | 0.00 | 0.00 | 0.00 | 71 | 1011.4 |
| 20260508041540 | 42 | 223 | 3.0 | 6.0 | 0.00 | 0.00 | 0.00 | 71 | 1011.5 |
| 20260508040036 | 43 | 219 | 3.0 | 8.0 | 0.00 | 0.00 | 0.00 | 70 | 1011.5 |
| 20260508034536 | 43 | 207 | 2.0 | 8.0 | 0.00 | 0.00 | 0.00 | 70 | 1011.4 |
| 20260508033036 | 42 | 242 | 1.0 | 4.0 | 0.00 | 0.00 | 0.00 | 73 | 1011.3 |
| 20260508031535 | 41 | 175 | 4.0 | 8.0 | 0.00 | 0.00 | 0.00 | 75 | 1011.4 |
| 20260508030039 | 40 | 163 | 4.0 | 7.0 | 0.00 | 0.00 | 0.00 | 77 | 1011.5 |
| 20260508024538 | 39 | 150 | 1.0 | 3.0 | 0.00 | 0.00 | 0.00 | 79 | 1011.7 |
| 20260508023034 | 39 | 150 | 2.0 | 3.0 | 0.00 | 0.00 | 0.00 | 79 | 1011.7 |
| 20260508021544 | 39 | 133 | 2.0 | 4.0 | 0.00 | 0.00 | 0.00 | 77 | 1011.5 |
| 20260508020032 | 39 | 132 | 2.0 | 4.0 | 0.00 | 0.00 | 0.00 | 76 | 1011.3 |
| 20260508014532 | 41 | 142 | 2.0 | 5.0 | 0.00 | 0.00 | 0.00 | 74 | 1011.5 |
| 20260508013039 | 41 | 140 | 6.0 | 9.0 | 0.00 | 0.00 | 0.00 | 73 | 1011.3 |
| 20260508011533 | 41 | 171 | 6.0 | 10.0 | 0.00 | 0.00 | 0.00 | 73 | 1011.4 |
| 20260508010033 | 42 | 136 | 8.0 | 13.0 | 0.00 | 0.00 | 0.00 | 72 | 1011.3 |
| 20260508004537 | 42 | 148 | 4.0 | 8.0 | 0.00 | 0.00 | 0.00 | 72 | 1011.2 |
| 20260508003029 | 42 | 128 | 6.0 | 8.0 | 0.00 | 0.00 | 0.00 | 70 | 1011.0 |
| 20260508001528 | 43 | 125 | 4.0 | 8.0 | 0.00 | 0.00 | 0.00 | 69 | 1011.1 |
| 20260508000028 | 43 | 125 | 4.0 | 9.0 | 0.00 | 0.00 | 0.00 | 66 | 1010.9 |
| 20260507234526 | 43 | 85 | 4.0 | 9.0 | 0.00 | 0.00 | 0.00 | 66 | 1011.0 |
| 20260507233035 | 44 | 111 | 5.0 | 10.0 | 0.00 | 0.00 | 0.00 | 64 | 1010.9 |
| 20260507231525 | 43 | 93 | 6.0 | 10.0 | 0.00 | 0.00 | 0.00 | 66 | 1011.0 |
| 20260507230026 | 44 | 82 | 7.0 | 10.0 | 0.00 | 0.00 | 0.00 | 67 | 1011.1 |
| 20260507224523 | 45 | 84 | 7.0 | 9.0 | 0.00 | 0.00 | 0.00 | 67 | 1010.9 |
| 20260507223023 | 45 | 73 | 5.0 | 9.0 | 0.00 | 0.00 | 0.00 | 69 | 1011.1 |
| 20260507221522 | 44 | 54 | 7.0 | 10.0 | 0.00 | 0.00 | 0.00 | 68 | 1011.1 |
| 20260507220022 | 46 | 70 | 6.0 | 9.0 | 0.00 | 0.00 | 0.00 | 70 | 1011.1 |
| 20260507214526 | 44 | 56 | 4.0 | 11.0 | 0.00 | 0.00 | 0.00 | 70 | 1011.1 |
| 20260507213020 | 44 | 68 | 6.0 | 11.0 | 0.00 | 0.00 | 0.00 | 70 | 1011.1 |
| 20260507211518 | 45 | 77 | 8.0 | 12.0 | 0.00 | 0.00 | 0.00 | 70 | 1011.1 |
| 20260507210032 | 42 | 82 | 6.0 | 10.0 | 0.00 | 0.00 | 0.00 | 71 | 1011.3 |
| 20260507204516 | 43 | 84 | 6.0 | 10.0 | 0.00 | 0.00 | 0.00 | 72 | 1011.3 |
| 20260507203015 | 45 | 40 | 9.0 | 12.0 | 0.00 | 0.00 | 0.00 | 73 | 1011.4 |
| 20260507201514 | 43 | 61 | 5.0 | 10.0 | 0.00 | 0.00 | 0.00 | 72 | 1011.4 |
| 20260507200018 | 43 | 56 | 7.0 | 10.0 | 0.00 | 0.00 | 0.00 | 74 | 1011.7 |
| 20260507194517 | 42 | 36 | 4.0 | 9.0 | 0.00 | 0.00 | 0.00 | 68 | 1011.9 |
| 20260507193014 | 44 | 52 | 10.0 | 13.0 | 0.00 | 0.00 | 0.00 | 68 | 1011.5 |
| 20260507191511 | 44 | 48 | 9.0 | 13.0 | 0.00 | 0.00 | 0.00 | 67 | 1011.7 |
| 20260507190012 | 44 | 41 | 8.0 | 13.0 | 0.00 | 0.00 | 0.00 | 69 | 1011.8 |
| 20260507184516 | 43 | 46 | 9.0 | 13.0 | 0.00 | 0.00 | 0.00 | 66 | 1012.0 |
| 20260507183009 | 44 | 53 | 10.0 | 14.0 | 0.00 | 0.00 | 0.00 | 67 | 1011.9 |
| 20260507181508 | 43 | 57 | 8.0 | 14.0 | 0.00 | 0.00 | 0.00 | 71 | 1012.0 |
| 20260507180007 | 43 | 60 | 8.0 | 11.0 | 0.00 | 0.00 | 0.00 | 71 | 1011.9 |
| 20260507174507 | 43 | 81 | 9.0 | 14.0 | 0.00 | 0.00 | 0.00 | 69 | 1011.9 |
| 20260507173006 | 44 | 42 | 11.0 | 15.0 | 0.00 | 0.00 | 0.00 | 68 | 1011.9 |
| 20260507171504 | 44 | 57 | 6.0 | 11.0 | 0.00 | 0.00 | 0.00 | 68 | 1012.0 |
| 20260507170005 | 45 | 94 | 6.0 | 11.0 | 0.00 | 0.00 | 0.00 | 68 | 1011.8 |
| 20260507164504 | 45 | 67 | 3.0 | 12.0 | 0.00 | 0.00 | 0.00 | 68 | 1011.7 |